owner,sensor,date,latitude,longitude,air_temperature,qcFlag 
NDBC,ioos:station:NOAA.NDBC:SANF1:1,2019-08-01T00:50:00Z,24.4560,-81.8770,29.1,11111222 
NDBC,ioos:station:NOAA.NDBC:SANF1:1,2019-08-01T01:50:00Z,24.4560,-81.8770,29.1,11111222 
NDBC,ioos:station:NOAA.NDBC:SANF1:1,2019-08-01T02:50:00Z,24.4560,-81.8770,30.0,11111222 
NDBC,ioos:station:NOAA.NDBC:SANF1:1,2019-08-01T03:50:00Z,24.4560,-81.8770,28.8,11111222 
NDBC,ioos:station:NOAA.NDBC:SANF1:1,2019-08-01T04:50:00Z,24.4560,-81.8770,28.9,11111222 
NDBC,ioos:station:NOAA.NDBC:SANF1:1,2019-08-01T05:50:00Z,24.4560,-81.8770,28.8,11111222 
NDBC,ioos:station:NOAA.NDBC:SANF1:1,2019-08-01T06:50:00Z,24.4560,-81.8770,28.9,11111222 
NDBC,ioos:station:NOAA.NDBC:SANF1:1,2019-08-01T07:50:00Z,24.4560,-81.8770,28.7,11111222 
NDBC,ioos:station:NOAA.NDBC:SANF1:1,2019-08-01T08:50:00Z,24.4560,-81.8770,25.3,11111222 
NDBC,ioos:station:NOAA.NDBC:SANF1:1,2019-08-01T09:50:00Z,24.4560,-81.8770,26.8,11111222 
NDBC,ioos:station:NOAA.NDBC:SANF1:1,2019-08-01T10:50:00Z,24.4560,-81.8770,27.7,11111222 
NDBC,ioos:station:NOAA.NDBC:SANF1:1,2019-08-01T11:50:00Z,24.4560,-81.8770,28.1,11111222 
NDBC,ioos:station:NOAA.NDBC:SANF1:1,2019-08-01T12:50:00Z,24.4560,-81.8770,28.5,11111222 
NDBC,ioos:station:NOAA.NDBC:SANF1:1,2019-08-01T14:00:00Z,24.4560,-81.8770,28.9,11111222 
NDBC,ioos:station:NOAA.NDBC:SANF1:1,2019-08-01T14:50:00Z,24.4560,-81.8770,29.0,11111222 
NDBC,ioos:station:NOAA.NDBC:SANF1:1,2019-08-01T15:50:00Z,24.4560,-81.8770,29.3,11111222 
NDBC,ioos:station:NOAA.NDBC:SANF1:1,2019-08-01T16:50:00Z,24.4560,-81.8770,29.2,11111222 
NDBC,ioos:station:NOAA.NDBC:SANF1:1,2019-08-01T18:00:00Z,24.4560,-81.8770,29.1,11111222 
NDBC,ioos:station:NOAA.NDBC:SANF1:1,2019-08-01T19:00:00Z,24.4560,-81.8770,28.9,11111222 
NDBC,ioos:station:NOAA.NDBC:SANF1:1,2019-08-01T20:00:00Z,24.4560,-81.8770,28.5,11111222 
NDBC,ioos:station:NOAA.NDBC:SANF1:1,2019-08-01T20:50:00Z,24.4560,-81.8770,28.9,11111222 
NDBC,ioos:station:NOAA.NDBC:SANF1:1,2019-08-01T22:00:00Z,24.4560,-81.8770,29.0,11111222 
NDBC,ioos:station:NOAA.NDBC:SANF1:1,2019-08-01T23:00:00Z,24.4560,-81.8770,28.0,11111222 
NDBC,ioos:station:NOAA.NDBC:SANF1:1,2019-08-01T23:50:00Z,24.4560,-81.8770,27.7,11111222 
NDBC,ioos:station:NOAA.NDBC:SANF1:1,2019-08-02T00:50:00Z,24.4560,-81.8770,28.1,11111222 
NDBC,ioos:station:NOAA.NDBC:SANF1:1,2019-08-02T01:50:00Z,24.4560,-81.8770,29.1,11111222 
NDBC,ioos:station:NOAA.NDBC:SANF1:1,2019-08-02T02:50:00Z,24.4560,-81.8770,26.0,11111222 
NDBC,ioos:station:NOAA.NDBC:SANF1:1,2019-08-02T03:50:00Z,24.4560,-81.8770,23.5,11111222 
NDBC,ioos:station:NOAA.NDBC:SANF1:1,2019-08-02T04:50:00Z,24.4560,-81.8770,25.3,11111222 
NDBC,ioos:station:NOAA.NDBC:SANF1:1,2019-08-02T05:50:00Z,24.4560,-81.8770,26.4,11111222 
NDBC,ioos:station:NOAA.NDBC:SANF1:1,2019-08-02T06:50:00Z,24.4560,-81.8770,26.4,11111222 
NDBC,ioos:station:NOAA.NDBC:SANF1:1,2019-08-02T07:50:00Z,24.4560,-81.8770,27.2,11111222 
NDBC,ioos:station:NOAA.NDBC:SANF1:1,2019-08-02T08:50:00Z,24.4560,-81.8770,27.6,11111222 
NDBC,ioos:station:NOAA.NDBC:SANF1:1,2019-08-02T09:50:00Z,24.4560,-81.8770,28.4,11111222 
NDBC,ioos:station:NOAA.NDBC:SANF1:1,2019-08-02T10:50:00Z,24.4560,-81.8770,28.8,11111222 
NDBC,ioos:station:NOAA.NDBC:SANF1:1,2019-08-02T11:50:00Z,24.4560,-81.8770,28.9,11111222 
NDBC,ioos:station:NOAA.NDBC:SANF1:1,2019-08-02T13:00:00Z,24.4560,-81.8770,29.0,11111222 
NDBC,ioos:station:NOAA.NDBC:SANF1:1,2019-08-02T14:00:00Z,24.4560,-81.8770,28.9,11111222 
NDBC,ioos:station:NOAA.NDBC:SANF1:1,2019-08-02T14:50:00Z,24.4560,-81.8770,28.8,11111222 
NDBC,ioos:station:NOAA.NDBC:SANF1:1,2019-08-02T15:50:00Z,24.4560,-81.8770,29.0,11111222 
NDBC,ioos:station:NOAA.NDBC:SANF1:1,2019-08-02T16:50:00Z,24.4560,-81.8770,29.1,11111222 
NDBC,ioos:station:NOAA.NDBC:SANF1:1,2019-08-02T18:00:00Z,24.4560,-81.8770,29.2,11111222 
NDBC,ioos:station:NOAA.NDBC:SANF1:1,2019-08-02T18:50:00Z,24.4560,-81.8770,27.4,11111222 
NDBC,ioos:station:NOAA.NDBC:SANF1:1,2019-08-02T20:00:00Z,24.4560,-81.8770,28.6,11111222 
NDBC,ioos:station:NOAA.NDBC:SANF1:1,2019-08-02T20:50:00Z,24.4560,-81.8770,28.4,11111222 
NDBC,ioos:station:NOAA.NDBC:SANF1:1,2019-08-02T21:50:00Z,24.4560,-81.8770,28.3,11111222 
NDBC,ioos:station:NOAA.NDBC:SANF1:1,2019-08-02T22:50:00Z,24.4560,-81.8770,28.8,11111222 
NDBC,ioos:station:NOAA.NDBC:SANF1:1,2019-08-02T23:50:00Z,24.4560,-81.8770,28.5,11111222 
NDBC,ioos:station:NOAA.NDBC:SANF1:1,2019-08-03T00:50:00Z,24.4560,-81.8770,28.9,11111222 
NDBC,ioos:station:NOAA.NDBC:SANF1:1,2019-08-03T01:50:00Z,24.4560,-81.8770,28.8,11111222 
NDBC,ioos:station:NOAA.NDBC:SANF1:1,2019-08-03T02:50:00Z,24.4560,-81.8770,28.8,11111222 
NDBC,ioos:station:NOAA.NDBC:SANF1:1,2019-08-03T03:50:00Z,24.4560,-81.8770,28.9,11111222 
NDBC,ioos:station:NOAA.NDBC:SANF1:1,2019-08-03T04:50:00Z,24.4560,-81.8770,28.4,11111222 
NDBC,ioos:station:NOAA.NDBC:SANF1:1,2019-08-03T05:50:00Z,24.4560,-81.8770,28.5,11111222 
NDBC,ioos:station:NOAA.NDBC:SANF1:1,2019-08-03T06:50:00Z,24.4560,-81.8770,28.7,11111222 
NDBC,ioos:station:NOAA.NDBC:SANF1:1,2019-08-03T07:50:00Z,24.4560,-81.8770,28.7,11111222 
NDBC,ioos:station:NOAA.NDBC:SANF1:1,2019-08-03T08:50:00Z,24.4560,-81.8770,28.5,11111222 
NDBC,ioos:station:NOAA.NDBC:SANF1:1,2019-08-03T10:00:00Z,24.4560,-81.8770,28.5,11111222 
NDBC,ioos:station:NOAA.NDBC:SANF1:1,2019-08-03T11:00:00Z,24.4560,-81.8770,28.5,11111222 
NDBC,ioos:station:NOAA.NDBC:SANF1:1,2019-08-03T12:00:00Z,24.4560,-81.8770,28.9,11111222 
NDBC,ioos:station:NOAA.NDBC:SANF1:1,2019-08-03T13:00:00Z,24.4560,-81.8770,28.8,11111222 
NDBC,ioos:station:NOAA.NDBC:SANF1:1,2019-08-03T14:00:00Z,24.4560,-81.8770,29.1,11111222 
NDBC,ioos:station:NOAA.NDBC:SANF1:1,2019-08-03T15:00:00Z,24.4560,-81.8770,29.2,11111222 
NDBC,ioos:station:NOAA.NDBC:SANF1:1,2019-08-03T15:50:00Z,24.4560,-81.8770,29.4,11111222 
NDBC,ioos:station:NOAA.NDBC:SANF1:1,2019-08-03T16:50:00Z,24.4560,-81.8770,29.2,11111222 
NDBC,ioos:station:NOAA.NDBC:SANF1:1,2019-08-03T18:00:00Z,24.4560,-81.8770,29.8,11111222 
NDBC,ioos:station:NOAA.NDBC:SANF1:1,2019-08-03T18:50:00Z,24.4560,-81.8770,29.7,11111222 
NDBC,ioos:station:NOAA.NDBC:SANF1:1,2019-08-03T19:50:00Z,24.4560,-81.8770,30.0,11111222 
NDBC,ioos:station:NOAA.NDBC:SANF1:1,2019-08-03T20:50:00Z,24.4560,-81.8770,30.4,11111222 
NDBC,ioos:station:NOAA.NDBC:SANF1:1,2019-08-03T21:50:00Z,24.4560,-81.8770,30.3,11111222 
NDBC,ioos:station:NOAA.NDBC:SANF1:1,2019-08-03T22:50:00Z,24.4560,-81.8770,29.9,11111222 
NDBC,ioos:station:NOAA.NDBC:SANF1:1,2019-08-04T00:00:00Z,24.4560,-81.8770,29.5,11111222 
NDBC,ioos:station:NOAA.NDBC:SANF1:1,2019-08-04T01:00:00Z,24.4560,-81.8770,29.2,11111222 
NDBC,ioos:station:NOAA.NDBC:SANF1:1,2019-08-04T02:00:00Z,24.4560,-81.8770,28.3,11111222 
NDBC,ioos:station:NOAA.NDBC:SANF1:1,2019-08-04T02:50:00Z,24.4560,-81.8770,28.6,11111222 
NDBC,ioos:station:NOAA.NDBC:SANF1:1,2019-08-04T03:50:00Z,24.4560,-81.8770,28.6,11111222 
NDBC,ioos:station:NOAA.NDBC:SANF1:1,2019-08-04T04:50:00Z,24.4560,-81.8770,28.9,11111222 
NDBC,ioos:station:NOAA.NDBC:SANF1:1,2019-08-04T05:50:00Z,24.4560,-81.8770,28.9,11111222 
NDBC,ioos:station:NOAA.NDBC:SANF1:1,2019-08-04T06:50:00Z,24.4560,-81.8770,28.9,11111222 
NDBC,ioos:station:NOAA.NDBC:SANF1:1,2019-08-04T07:50:00Z,24.4560,-81.8770,28.7,11111222 
NDBC,ioos:station:NOAA.NDBC:SANF1:1,2019-08-04T09:00:00Z,24.4560,-81.8770,28.6,11111222 
NDBC,ioos:station:NOAA.NDBC:SANF1:1,2019-08-04T10:00:00Z,24.4560,-81.8770,28.7,11111222 
NDBC,ioos:station:NOAA.NDBC:SANF1:1,2019-08-04T11:00:00Z,24.4560,-81.8770,28.9,11111222 
NDBC,ioos:station:NOAA.NDBC:SANF1:1,2019-08-04T11:50:00Z,24.4560,-81.8770,28.9,11111222 
NDBC,ioos:station:NOAA.NDBC:SANF1:1,2019-08-04T12:50:00Z,24.4560,-81.8770,28.9,11111222 
NDBC,ioos:station:NOAA.NDBC:SANF1:1,2019-08-04T13:50:00Z,24.4560,-81.8770,29.2,11111222 
NDBC,ioos:station:NOAA.NDBC:SANF1:1,2019-08-04T14:50:00Z,24.4560,-81.8770,29.1,11111222 
NDBC,ioos:station:NOAA.NDBC:SANF1:1,2019-08-04T16:00:00Z,24.4560,-81.8770,29.4,11111222 
NDBC,ioos:station:NOAA.NDBC:SANF1:1,2019-08-04T17:00:00Z,24.4560,-81.8770,29.3,11111222 
NDBC,ioos:station:NOAA.NDBC:SANF1:1,2019-08-04T18:00:00Z,24.4560,-81.8770,29.5,11111222 
NDBC,ioos:station:NOAA.NDBC:SANF1:1,2019-08-04T18:50:00Z,24.4560,-81.8770,29.5,11111222 
NDBC,ioos:station:NOAA.NDBC:SANF1:1,2019-08-04T19:50:00Z,24.4560,-81.8770,29.8,11111222 
NDBC,ioos:station:NOAA.NDBC:SANF1:1,2019-08-04T21:00:00Z,24.4560,-81.8770,29.9,11111222 
NDBC,ioos:station:NOAA.NDBC:SANF1:1,2019-08-04T22:00:00Z,24.4560,-81.8770,27.8,11111222 
NDBC,ioos:station:NOAA.NDBC:SANF1:1,2019-08-04T23:00:00Z,24.4560,-81.8770,27.1,11111222 
NDBC,ioos:station:NOAA.NDBC:SANF1:1,2019-08-05T00:00:00Z,24.4560,-81.8770,28.1,11111222 
NDBC,ioos:station:NOAA.NDBC:SANF1:1,2019-08-05T01:00:00Z,24.4560,-81.8770,28.4,11111222 
NDBC,ioos:station:NOAA.NDBC:SANF1:1,2019-08-05T01:50:00Z,24.4560,-81.8770,28.3,11111222 
NDBC,ioos:station:NOAA.NDBC:SANF1:1,2019-08-05T02:50:00Z,24.4560,-81.8770,28.1,11111222 
NDBC,ioos:station:NOAA.NDBC:SANF1:1,2019-08-05T03:50:00Z,24.4560,-81.8770,28.2,11111222 
NDBC,ioos:station:NOAA.NDBC:SANF1:1,2019-08-05T05:00:00Z,24.4560,-81.8770,28.3,11111222 
NDBC,ioos:station:NOAA.NDBC:SANF1:1,2019-08-05T05:50:00Z,24.4560,-81.8770,28.5,11111222 
NDBC,ioos:station:NOAA.NDBC:SANF1:1,2019-08-05T06:50:00Z,24.4560,-81.8770,28.8,11111222 
NDBC,ioos:station:NOAA.NDBC:SANF1:1,2019-08-05T07:00:00Z,24.4560,-81.8770,28.9,11111222 
NDBC,ioos:station:NOAA.NDBC:SANF1:1,2019-08-05T07:10:00Z,24.4560,-81.8770,28.9,11111222 
NDBC,ioos:station:NOAA.NDBC:SANF1:1,2019-08-05T08:40:00Z,24.4560,-81.8770,28.7,11111222 
NDBC,ioos:station:NOAA.NDBC:SANF1:1,2019-08-05T09:20:00Z,24.4560,-81.8770,28.8,11111222 
NDBC,ioos:station:NOAA.NDBC:SANF1:1,2019-08-05T09:50:00Z,24.4560,-81.8770,28.8,11111222 
NDBC,ioos:station:NOAA.NDBC:SANF1:1,2019-08-05T11:30:00Z,24.4560,-81.8770,29.0,11111222 
NDBC,ioos:station:NOAA.NDBC:SANF1:1,2019-08-05T13:20:00Z,24.4560,-81.8770,29.7,11111222 
NDBC,ioos:station:NOAA.NDBC:SANF1:1,2019-08-05T16:00:00Z,24.4560,-81.8770,29.9,11111222 
NDBC,ioos:station:NOAA.NDBC:SANF1:1,2019-08-05T16:50:00Z,24.4560,-81.8770,31.5,11111222 
NDBC,ioos:station:NOAA.NDBC:SANF1:1,2019-08-05T17:50:00Z,24.4560,-81.8770,32.8,11111222 
NDBC,ioos:station:NOAA.NDBC:SANF1:1,2019-08-05T18:50:00Z,24.4560,-81.8770,31.8,11111222 
NDBC,ioos:station:NOAA.NDBC:SANF1:1,2019-08-05T20:00:00Z,24.4560,-81.8770,30.9,11111222 
NDBC,ioos:station:NOAA.NDBC:SANF1:1,2019-08-05T20:50:00Z,24.4560,-81.8770,30.9,11111222 
NDBC,ioos:station:NOAA.NDBC:SANF1:1,2019-08-05T21:50:00Z,24.4560,-81.8770,30.7,11111222 
NDBC,ioos:station:NOAA.NDBC:SANF1:1,2019-08-05T23:00:00Z,24.4560,-81.8770,30.7,11111222 
NDBC,ioos:station:NOAA.NDBC:SANF1:1,2019-08-05T23:50:00Z,24.4560,-81.8770,30.3,11111222 
NDBC,ioos:station:NOAA.NDBC:SANF1:1,2019-08-06T01:00:00Z,24.4560,-81.8770,30.1,11111222 
NDBC,ioos:station:NOAA.NDBC:SANF1:1,2019-08-06T02:00:00Z,24.4560,-81.8770,30.1,11111222 
NDBC,ioos:station:NOAA.NDBC:SANF1:1,2019-08-06T02:50:00Z,24.4560,-81.8770,29.8,11111222 
NDBC,ioos:station:NOAA.NDBC:SANF1:1,2019-08-06T04:00:00Z,24.4560,-81.8770,29.7,11111222 
NDBC,ioos:station:NOAA.NDBC:SANF1:1,2019-08-06T04:50:00Z,24.4560,-81.8770,28.5,11111222 
NDBC,ioos:station:NOAA.NDBC:SANF1:1,2019-08-06T06:00:00Z,24.4560,-81.8770,29.4,11111222 
NDBC,ioos:station:NOAA.NDBC:SANF1:1,2019-08-06T06:50:00Z,24.4560,-81.8770,29.4,11111222 
NDBC,ioos:station:NOAA.NDBC:SANF1:1,2019-08-06T08:00:00Z,24.4560,-81.8770,29.3,11111222 
NDBC,ioos:station:NOAA.NDBC:SANF1:1,2019-08-06T09:00:00Z,24.4560,-81.8770,29.2,11111222 
NDBC,ioos:station:NOAA.NDBC:SANF1:1,2019-08-06T09:50:00Z,24.4560,-81.8770,29.2,11111222 
NDBC,ioos:station:NOAA.NDBC:SANF1:1,2019-08-06T11:00:00Z,24.4560,-81.8770,29.3,11111222 
NDBC,ioos:station:NOAA.NDBC:SANF1:1,2019-08-06T12:00:00Z,24.4560,-81.8770,29.5,11111222 
NDBC,ioos:station:NOAA.NDBC:SANF1:1,2019-08-06T12:50:00Z,24.4560,-81.8770,29.9,11111222 
NDBC,ioos:station:NOAA.NDBC:SANF1:1,2019-08-06T14:00:00Z,24.4560,-81.8770,30.0,11111222 
NDBC,ioos:station:NOAA.NDBC:SANF1:1,2019-08-06T15:00:00Z,24.4560,-81.8770,30.1,11111222 
NDBC,ioos:station:NOAA.NDBC:SANF1:1,2019-08-06T16:00:00Z,24.4560,-81.8770,32.1,11111222 
NDBC,ioos:station:NOAA.NDBC:SANF1:1,2019-08-06T17:00:00Z,24.4560,-81.8770,31.5,11111222 
NDBC,ioos:station:NOAA.NDBC:SANF1:1,2019-08-06T17:50:00Z,24.4560,-81.8770,30.7,11111222 
NDBC,ioos:station:NOAA.NDBC:SANF1:1,2019-08-06T19:00:00Z,24.4560,-81.8770,30.6,11111222 
NDBC,ioos:station:NOAA.NDBC:SANF1:1,2019-08-06T20:00:00Z,24.4560,-81.8770,30.5,11111222 
NDBC,ioos:station:NOAA.NDBC:SANF1:1,2019-08-06T21:00:00Z,24.4560,-81.8770,30.7,11111222 
NDBC,ioos:station:NOAA.NDBC:SANF1:1,2019-08-06T22:00:00Z,24.4560,-81.8770,30.8,11111222 
NDBC,ioos:station:NOAA.NDBC:SANF1:1,2019-08-06T22:50:00Z,24.4560,-81.8770,30.6,11111222 
NDBC,ioos:station:NOAA.NDBC:SANF1:1,2019-08-06T23:50:00Z,24.4560,-81.8770,30.1,11111222 
NDBC,ioos:station:NOAA.NDBC:SANF1:1,2019-08-07T00:50:00Z,24.4560,-81.8770,29.9,11111222 
NDBC,ioos:station:NOAA.NDBC:SANF1:1,2019-08-07T01:50:00Z,24.4560,-81.8770,30.0,11111222 
NDBC,ioos:station:NOAA.NDBC:SANF1:1,2019-08-07T02:50:00Z,24.4560,-81.8770,30.0,11111222 
NDBC,ioos:station:NOAA.NDBC:SANF1:1,2019-08-07T03:50:00Z,24.4560,-81.8770,27.3,11111222 
NDBC,ioos:station:NOAA.NDBC:SANF1:1,2019-08-07T04:50:00Z,24.4560,-81.8770,27.4,11111222 
NDBC,ioos:station:NOAA.NDBC:SANF1:1,2019-08-07T05:50:00Z,24.4560,-81.8770,28.1,11111222 
NDBC,ioos:station:NOAA.NDBC:SANF1:1,2019-08-07T06:50:00Z,24.4560,-81.8770,28.5,11111222 
NDBC,ioos:station:NOAA.NDBC:SANF1:1,2019-08-07T07:50:00Z,24.4560,-81.8770,28.8,11111222 
NDBC,ioos:station:NOAA.NDBC:SANF1:1,2019-08-07T08:50:00Z,24.4560,-81.8770,28.7,11111222 
NDBC,ioos:station:NOAA.NDBC:SANF1:1,2019-08-07T10:00:00Z,24.4560,-81.8770,28.8,11111222 
NDBC,ioos:station:NOAA.NDBC:SANF1:1,2019-08-07T10:50:00Z,24.4560,-81.8770,28.9,11111222 
NDBC,ioos:station:NOAA.NDBC:SANF1:1,2019-08-07T12:00:00Z,24.4560,-81.8770,29.4,11111222 
NDBC,ioos:station:NOAA.NDBC:SANF1:1,2019-08-07T12:50:00Z,24.4560,-81.8770,29.5,11111222 
NDBC,ioos:station:NOAA.NDBC:SANF1:1,2019-08-07T13:50:00Z,24.4560,-81.8770,30.0,11111222 
NDBC,ioos:station:NOAA.NDBC:SANF1:1,2019-08-07T15:00:00Z,24.4560,-81.8770,30.2,11111222 
NDBC,ioos:station:NOAA.NDBC:SANF1:1,2019-08-07T16:00:00Z,24.4560,-81.8770,30.5,11111222 
NDBC,ioos:station:NOAA.NDBC:SANF1:1,2019-08-07T17:00:00Z,24.4560,-81.8770,31.7,11111222 
NDBC,ioos:station:NOAA.NDBC:SANF1:1,2019-08-07T17:50:00Z,24.4560,-81.8770,30.3,11111222 
NDBC,ioos:station:NOAA.NDBC:SANF1:1,2019-08-07T18:50:00Z,24.4560,-81.8770,31.9,11111222 
NDBC,ioos:station:NOAA.NDBC:SANF1:1,2019-08-07T19:50:00Z,24.4560,-81.8770,33.3,11111222 
NDBC,ioos:station:NOAA.NDBC:SANF1:1,2019-08-07T20:50:00Z,24.4560,-81.8770,32.9,11111222 
NDBC,ioos:station:NOAA.NDBC:SANF1:1,2019-08-07T21:30:00Z,24.4560,-81.8770,34.7,11111222 
NDBC,ioos:station:NOAA.NDBC:SANF1:1,2019-08-07T21:40:00Z,24.4560,-81.8770,33.4,11111222 
NDBC,ioos:station:NOAA.NDBC:SANF1:1,2019-08-07T23:00:00Z,24.4560,-81.8770,30.5,11111222 
NDBC,ioos:station:NOAA.NDBC:SANF1:1,2019-08-08T00:20:00Z,24.4560,-81.8770,29.3,11111222 
NDBC,ioos:station:NOAA.NDBC:SANF1:1,2019-08-08T02:00:00Z,24.4560,-81.8770,29.3,11111222 
NDBC,ioos:station:NOAA.NDBC:SANF1:1,2019-08-08T02:50:00Z,24.4560,-81.8770,29.9,11111222 
NDBC,ioos:station:NOAA.NDBC:SANF1:1,2019-08-08T04:00:00Z,24.4560,-81.8770,29.8,11111222 
NDBC,ioos:station:NOAA.NDBC:SANF1:1,2019-08-08T04:50:00Z,24.4560,-81.8770,29.8,11111222 
NDBC,ioos:station:NOAA.NDBC:SANF1:1,2019-08-08T06:00:00Z,24.4560,-81.8770,29.6,11111222 
NDBC,ioos:station:NOAA.NDBC:SANF1:1,2019-08-08T06:50:00Z,24.4560,-81.8770,29.7,11111222 
NDBC,ioos:station:NOAA.NDBC:SANF1:1,2019-08-08T07:50:00Z,24.4560,-81.8770,29.5,11111222 
NDBC,ioos:station:NOAA.NDBC:SANF1:1,2019-08-08T08:50:00Z,24.4560,-81.8770,29.5,11111222 
NDBC,ioos:station:NOAA.NDBC:SANF1:1,2019-08-08T09:50:00Z,24.4560,-81.8770,29.4,11111222 
NDBC,ioos:station:NOAA.NDBC:SANF1:1,2019-08-08T10:50:00Z,24.4560,-81.8770,29.3,11111222 
NDBC,ioos:station:NOAA.NDBC:SANF1:1,2019-08-08T11:50:00Z,24.4560,-81.8770,29.7,11111222 
NDBC,ioos:station:NOAA.NDBC:SANF1:1,2019-08-08T12:50:00Z,24.4560,-81.8770,30.2,11111222 
NDBC,ioos:station:NOAA.NDBC:SANF1:1,2019-08-08T13:50:00Z,24.4560,-81.8770,30.0,11111222 
NDBC,ioos:station:NOAA.NDBC:SANF1:1,2019-08-08T15:00:00Z,24.4560,-81.8770,30.0,11111222 
NDBC,ioos:station:NOAA.NDBC:SANF1:1,2019-08-08T15:50:00Z,24.4560,-81.8770,30.4,11111222 
NDBC,ioos:station:NOAA.NDBC:SANF1:1,2019-08-08T16:50:00Z,24.4560,-81.8770,30.8,11111222 
NDBC,ioos:station:NOAA.NDBC:SANF1:1,2019-08-08T18:00:00Z,24.4560,-81.8770,30.7,11111222 
NDBC,ioos:station:NOAA.NDBC:SANF1:1,2019-08-08T19:00:00Z,24.4560,-81.8770,30.8,11111222 
NDBC,ioos:station:NOAA.NDBC:SANF1:1,2019-08-08T19:50:00Z,24.4560,-81.8770,31.1,11111222 
NDBC,ioos:station:NOAA.NDBC:SANF1:1,2019-08-08T21:00:00Z,24.4560,-81.8770,31.7,11111222 
NDBC,ioos:station:NOAA.NDBC:SANF1:1,2019-08-08T21:50:00Z,24.4560,-81.8770,31.1,11111222 
NDBC,ioos:station:NOAA.NDBC:SANF1:1,2019-08-08T22:50:00Z,24.4560,-81.8770,31.1,11111222 
NDBC,ioos:station:NOAA.NDBC:SANF1:1,2019-08-08T23:50:00Z,24.4560,-81.8770,30.7,11111222 
NDBC,ioos:station:NOAA.NDBC:SANF1:1,2019-08-09T01:00:00Z,24.4560,-81.8770,30.4,11111222 
NDBC,ioos:station:NOAA.NDBC:SANF1:1,2019-08-09T01:50:00Z,24.4560,-81.8770,30.7,11111222 
NDBC,ioos:station:NOAA.NDBC:SANF1:1,2019-08-09T02:50:00Z,24.4560,-81.8770,30.5,11111222 
NDBC,ioos:station:NOAA.NDBC:SANF1:1,2019-08-09T03:50:00Z,24.4560,-81.8770,30.4,11111222 
NDBC,ioos:station:NOAA.NDBC:SANF1:1,2019-08-09T04:50:00Z,24.4560,-81.8770,30.3,11111222 
NDBC,ioos:station:NOAA.NDBC:SANF1:1,2019-08-09T05:50:00Z,24.4560,-81.8770,30.3,11111222 
NDBC,ioos:station:NOAA.NDBC:SANF1:1,2019-08-09T06:50:00Z,24.4560,-81.8770,29.9,11111222 
NDBC,ioos:station:NOAA.NDBC:SANF1:1,2019-08-09T07:50:00Z,24.4560,-81.8770,29.8,11111222 
NDBC,ioos:station:NOAA.NDBC:SANF1:1,2019-08-09T08:50:00Z,24.4560,-81.8770,29.7,11111222 
NDBC,ioos:station:NOAA.NDBC:SANF1:1,2019-08-09T09:50:00Z,24.4560,-81.8770,29.5,11111222 
NDBC,ioos:station:NOAA.NDBC:SANF1:1,2019-08-09T10:50:00Z,24.4560,-81.8770,29.5,11111222 
NDBC,ioos:station:NOAA.NDBC:SANF1:1,2019-08-09T11:50:00Z,24.4560,-81.8770,29.8,11111222 
NDBC,ioos:station:NOAA.NDBC:SANF1:1,2019-08-09T13:00:00Z,24.4560,-81.8770,29.7,11111222 
NDBC,ioos:station:NOAA.NDBC:SANF1:1,2019-08-09T13:50:00Z,24.4560,-81.8770,29.6,11111222 
NDBC,ioos:station:NOAA.NDBC:SANF1:1,2019-08-09T14:50:00Z,24.4560,-81.8770,30.2,11111222 
NDBC,ioos:station:NOAA.NDBC:SANF1:1,2019-08-09T15:50:00Z,24.4560,-81.8770,30.1,11111222 
NDBC,ioos:station:NOAA.NDBC:SANF1:1,2019-08-09T16:50:00Z,24.4560,-81.8770,30.2,11111222 
NDBC,ioos:station:NOAA.NDBC:SANF1:1,2019-08-09T17:50:00Z,24.4560,-81.8770,30.2,11111222 
NDBC,ioos:station:NOAA.NDBC:SANF1:1,2019-08-09T18:50:00Z,24.4560,-81.8770,30.1,11111222 
NDBC,ioos:station:NOAA.NDBC:SANF1:1,2019-08-09T19:50:00Z,24.4560,-81.8770,30.3,11111222 
NDBC,ioos:station:NOAA.NDBC:SANF1:1,2019-08-09T20:50:00Z,24.4560,-81.8770,30.6,11111222 
NDBC,ioos:station:NOAA.NDBC:SANF1:1,2019-08-09T21:50:00Z,24.4560,-81.8770,30.7,11111222 
NDBC,ioos:station:NOAA.NDBC:SANF1:1,2019-08-09T23:00:00Z,24.4560,-81.8770,31.1,11111222 
NDBC,ioos:station:NOAA.NDBC:SANF1:1,2019-08-09T23:50:00Z,24.4560,-81.8770,30.5,11111222 
NDBC,ioos:station:NOAA.NDBC:SANF1:1,2019-08-10T00:50:00Z,24.4560,-81.8770,30.2,11111222 
NDBC,ioos:station:NOAA.NDBC:SANF1:1,2019-08-10T01:50:00Z,24.4560,-81.8770,30.2,11111222 
NDBC,ioos:station:NOAA.NDBC:SANF1:1,2019-08-10T02:50:00Z,24.4560,-81.8770,30.2,11111222 
NDBC,ioos:station:NOAA.NDBC:SANF1:1,2019-08-10T04:30:00Z,24.4560,-81.8770,30.2,11111222 
NDBC,ioos:station:NOAA.NDBC:SANF1:1,2019-08-10T05:30:00Z,24.4560,-81.8770,30.0,11111222 
NDBC,ioos:station:NOAA.NDBC:SANF1:1,2019-08-10T06:30:00Z,24.4560,-81.8770,30.0,11111222 
NDBC,ioos:station:NOAA.NDBC:SANF1:1,2019-08-10T07:30:00Z,24.4560,-81.8770,29.8,11111222 
NDBC,ioos:station:NOAA.NDBC:SANF1:1,2019-08-10T08:30:00Z,24.4560,-81.8770,29.7,11111222 
NDBC,ioos:station:NOAA.NDBC:SANF1:1,2019-08-10T09:30:00Z,24.4560,-81.8770,29.2,11111222 
NDBC,ioos:station:NOAA.NDBC:SANF1:1,2019-08-10T10:30:00Z,24.4560,-81.8770,29.5,11111222 
NDBC,ioos:station:NOAA.NDBC:SANF1:1,2019-08-10T11:30:00Z,24.4560,-81.8770,29.7,11111222 
NDBC,ioos:station:NOAA.NDBC:SANF1:1,2019-08-10T12:30:00Z,24.4560,-81.8770,29.7,11111222 
NDBC,ioos:station:NOAA.NDBC:SANF1:1,2019-08-10T13:30:00Z,24.4560,-81.8770,29.9,11111222 
NDBC,ioos:station:NOAA.NDBC:SANF1:1,2019-08-10T14:30:00Z,24.4560,-81.8770,30.3,11111222 
NDBC,ioos:station:NOAA.NDBC:SANF1:1,2019-08-10T15:30:00Z,24.4560,-81.8770,30.2,11111222 
NDBC,ioos:station:NOAA.NDBC:SANF1:1,2019-08-10T16:30:00Z,24.4560,-81.8770,30.1,11111222 
NDBC,ioos:station:NOAA.NDBC:SANF1:1,2019-08-10T17:30:00Z,24.4560,-81.8770,30.3,11111222 
NDBC,ioos:station:NOAA.NDBC:SANF1:1,2019-08-10T18:30:00Z,24.4560,-81.8770,30.5,11111222 
NDBC,ioos:station:NOAA.NDBC:SANF1:1,2019-08-10T19:30:00Z,24.4560,-81.8770,30.5,11111222 
NDBC,ioos:station:NOAA.NDBC:SANF1:1,2019-08-10T20:30:00Z,24.4560,-81.8770,30.7,11111222 
NDBC,ioos:station:NOAA.NDBC:SANF1:1,2019-08-10T21:30:00Z,24.4560,-81.8770,30.6,11111222 
NDBC,ioos:station:NOAA.NDBC:SANF1:1,2019-08-10T22:30:00Z,24.4560,-81.8770,30.8,11111222 
NDBC,ioos:station:NOAA.NDBC:SANF1:1,2019-08-10T23:30:00Z,24.4560,-81.8770,30.3,11111222 
NDBC,ioos:station:NOAA.NDBC:SANF1:1,2019-08-11T00:20:00Z,24.4560,-81.8770,30.3,11111222 
NDBC,ioos:station:NOAA.NDBC:SANF1:1,2019-08-11T01:20:00Z,24.4560,-81.8770,30.2,11111222 
NDBC,ioos:station:NOAA.NDBC:SANF1:1,2019-08-11T02:30:00Z,24.4560,-81.8770,30.3,11111222 
NDBC,ioos:station:NOAA.NDBC:SANF1:1,2019-08-11T03:20:00Z,24.4560,-81.8770,30.3,11111222 
NDBC,ioos:station:NOAA.NDBC:SANF1:1,2019-08-11T04:30:00Z,24.4560,-81.8770,30.2,11111222 
NDBC,ioos:station:NOAA.NDBC:SANF1:1,2019-08-11T05:30:00Z,24.4560,-81.8770,30.1,11111222 
NDBC,ioos:station:NOAA.NDBC:SANF1:1,2019-08-11T06:30:00Z,24.4560,-81.8770,29.8,11111222 
NDBC,ioos:station:NOAA.NDBC:SANF1:1,2019-08-11T07:30:00Z,24.4560,-81.8770,29.7,11111222 
NDBC,ioos:station:NOAA.NDBC:SANF1:1,2019-08-11T08:30:00Z,24.4560,-81.8770,29.6,11111222 
NDBC,ioos:station:NOAA.NDBC:SANF1:1,2019-08-11T09:30:00Z,24.4560,-81.8770,29.5,11111222 
NDBC,ioos:station:NOAA.NDBC:SANF1:1,2019-08-11T10:30:00Z,24.4560,-81.8770,29.5,11111222 
NDBC,ioos:station:NOAA.NDBC:SANF1:1,2019-08-11T11:30:00Z,24.4560,-81.8770,29.6,11111222 
NDBC,ioos:station:NOAA.NDBC:SANF1:1,2019-08-11T12:30:00Z,24.4560,-81.8770,30.1,11111222 
NDBC,ioos:station:NOAA.NDBC:SANF1:1,2019-08-11T13:30:00Z,24.4560,-81.8770,30.3,11111222 
NDBC,ioos:station:NOAA.NDBC:SANF1:1,2019-08-11T14:30:00Z,24.4560,-81.8770,30.2,11111222 
NDBC,ioos:station:NOAA.NDBC:SANF1:1,2019-08-11T15:30:00Z,24.4560,-81.8770,30.1,11111222 
NDBC,ioos:station:NOAA.NDBC:SANF1:1,2019-08-11T15:50:00Z,24.4560,-81.8770,30.2,11111222 
NDBC,ioos:station:NOAA.NDBC:SANF1:1,2019-08-11T16:50:00Z,24.4560,-81.8770,30.2,11111222 
NDBC,ioos:station:NOAA.NDBC:SANF1:1,2019-08-11T18:00:00Z,24.4560,-81.8770,30.7,11111222 
NDBC,ioos:station:NOAA.NDBC:SANF1:1,2019-08-11T18:50:00Z,24.4560,-81.8770,30.1,11111222 
NDBC,ioos:station:NOAA.NDBC:SANF1:1,2019-08-11T19:50:00Z,24.4560,-81.8770,30.4,11111222 
NDBC,ioos:station:NOAA.NDBC:SANF1:1,2019-08-11T21:00:00Z,24.4560,-81.8770,30.6,11111222 
NDBC,ioos:station:NOAA.NDBC:SANF1:1,2019-08-11T21:50:00Z,24.4560,-81.8770,30.8,11111222 
NDBC,ioos:station:NOAA.NDBC:SANF1:1,2019-08-11T22:50:00Z,24.4560,-81.8770,30.7,11111222 
NDBC,ioos:station:NOAA.NDBC:SANF1:1,2019-08-11T23:50:00Z,24.4560,-81.8770,30.5,11111222 
NDBC,ioos:station:NOAA.NDBC:SANF1:1,2019-08-12T00:50:00Z,24.4560,-81.8770,30.3,11111222 
NDBC,ioos:station:NOAA.NDBC:SANF1:1,2019-08-12T01:50:00Z,24.4560,-81.8770,30.2,11111222 
NDBC,ioos:station:NOAA.NDBC:SANF1:1,2019-08-12T02:50:00Z,24.4560,-81.8770,30.1,11111222 
NDBC,ioos:station:NOAA.NDBC:SANF1:1,2019-08-12T03:50:00Z,24.4560,-81.8770,30.1,11111222 
NDBC,ioos:station:NOAA.NDBC:SANF1:1,2019-08-12T04:50:00Z,24.4560,-81.8770,29.9,11111222 